This is the latest recevied weather packets stored in our database for station/object KF6ILA. If no packets are shown the sender has not sent any weather packets the latest 10 day(s).
| Time | Temp. | Humidity | Pressure | Rain* | Wind** | Luminosity | Snow |
|---|---|---|---|---|---|---|---|
| 1788151553 | 20° C | 47% | 1015.3 hPa | 0 mm | - | 0 W/m² | - |
| 1788151256 | 20° C | 49% | 1015.4 hPa | 0 mm | - | 0 W/m² | - |
| 1788150068 | 20° C | 57% | 1015.2 hPa | 0 mm | - | 0 W/m² | - |
| 1788149771 | 20° C | 58% | 1015.2 hPa | 0 mm | - | 0 W/m² | - |
| 1788149474 | 20° C | 59% | 1015.2 hPa | 0 mm | - | 0 W/m² | - |
| 1788149177 | 19.44° C | 59% | 1015.1 hPa | 0 mm | - | 0 W/m² | - |
| 1788147395 | 20° C | 64% | 1014.8 hPa | 0 mm | - | 0 W/m² | - |
| 1788146801 | 20° C | 63% | 1014.5 hPa | 0 mm | - | 0 W/m² | - |
| 1788146504 | 19.44° C | 65% | 1014.6 hPa | 0 mm | - | 0 W/m² | - |
| 1788146207 | 19.44° C | 66% | 1014.5 hPa | 0 mm | - | 0 W/m² | - |
| 1788145613 | 20° C | 67% | 1014.5 hPa | 0 mm | - | 0 W/m² | - |
| 1788145316 | 20° C | 67% | 1014.5 hPa | 0 mm | - | 0 W/m² | - |
| 1788145019 | 20° C | 67% | 1014.5 hPa | 0 mm | - | 0 W/m² | - |
| 1788144128 | 20° C | 66% | 1014.5 hPa | 0 mm | - | 0 W/m² | - |
| 1788143831 | 20.56° C | 65% | 1014.5 hPa | 0 mm | - | 0 W/m² | - |
| 1788143534 | 20.56° C | 64% | 1014.5 hPa | 0 mm | - | 0 W/m² | - |
| 1788143237 | 20.56° C | 63% | 1014.4 hPa | 0 mm | - | 0 W/m² | - |
| 1788142940 | 21.11° C | 62% | 1014.5 hPa | 0 mm | - | 0 W/m² | - |
| 1788142643 | 21.11° C | 61% | 1014.4 hPa | 0 mm | - | 0 W/m² | - |
| 1788141752 | 22.22° C | 56% | 1014.2 hPa | 0 mm | - | 12 W/m² | - |
| 1788141455 | 22.22° C | 54% | 1014.2 hPa | 0 mm | - | 14 W/m² | - |
| 1788141158 | 22.78° C | 53% | 1014.1 hPa | 0 mm | - | 25 W/m² | - |
| 1788140861 | 22.78° C | 51% | 1014.1 hPa | 0 mm | - | 33 W/m² | - |
| 1788140564 | 22.78° C | 50% | 1014.1 hPa | 0 mm | - | 44 W/m² | - |
| 1788140267 | 23.33° C | 48% | 1014 hPa | 0 mm | - | 62 W/m² | - |
* Rain latest hour (hover to see other rain measurements)
** Current wind speed in m/s (hover to see current wind gust speed)